Weather History for Westerly, RI

Change the Weather History Date:

Saturday, April 5, 2014

  Actual Average (KGON) Record (KGON)
Temperature  
Mean Temperature 46 °F -  
Max Temperature 54 °F 54 °F 66 °F (1985)
Min Temperature 39 °F 37 °F 22 °F (1982)
Degree Days  
Heating Degree Days 20    
Moisture  
Dew Point 36 °F    
Average Humidity 78    
Maximum Humidity 97    
Minimum Humidity 38    
Precipitation  
Precipitation 0.09 in - - ()
Sea Level Pressure  
Sea Level Pressure 29.77 in    
Wind  
Wind Speed 8 mph (NW)    
Max Wind Speed 16 mph    
Max Gust Speed 26 mph    
Visibility 9 miles    
Events Rain    
Averages and records for this station are not official NWS values.
T = Trace of Precipitation, MM = Missing Value Source: NWS Daily Summary

Daily Weather History Graph

Daily Weather History Graph

Search for Another Location

Airport:

Trip Planner

Search our weather history database for the weather conditions in past years. The results will help you decide how hot, cold, wet, or windy it might be!

Date:

Astronomy

Apr. 05, 2014 Rise Set
Actual Time 6:23 AM EDT 7:16 PM EDT
Civil Twilight 5:55 AM EDT 7:44 PM EDT
Nautical Twilight 5:22 AM EDT 8:18 PM EDT
Astronomical Twilight 4:47 AM EDT 8:53 PM EDT
Moon 10:26 AM EDT (4/5) 12:26 AM EDT (4/5)
Length of Visible Light 13h 49m
Length of Day
12h 52m
Waxing Crescent, 34% of the Moon is Illuminated
Apr 5
Waxing Crescent
Apr 7
First Quarter
Apr 15
Full
Apr 22
Last Quarter
Apr 29
New

Hourly Weather History & Observations

Time (EDT) Temp. Windchill Dew Point Humidity Pressure Visibility Wind Dir Wind Speed Gust Speed Precip Events Conditions
12:53 AM 41.0 °F 34.7 °F 39.0 °F 93% 29.78 in 10.0 mi ENE 10.4 mph - 0.07 in Rain Light Rain
1:53 AM 42.1 °F 36.6 °F 41.0 °F 96% 29.74 in 8.0 mi NNE 9.2 mph - 0.00 in   Overcast
2:41 AM 42.1 °F 39.2 °F 41.0 °F 96% 29.74 in 2.0 mi NNE 4.6 mph - 0.02 in Rain Light Rain
2:53 AM 42.1 °F 38.4 °F 41.0 °F 96% 29.71 in 5.0 mi NNE 5.8 mph - 0.02 in Rain Light Rain
3:04 AM 42.1 °F 37.7 °F 41.0 °F 96% 29.71 in 6.0 mi North 6.9 mph - 0.00 in   Overcast
3:13 AM 42.1 °F 37.1 °F 41.0 °F 96% 29.71 in 6.0 mi NNE 8.1 mph - 0.00 in   Overcast
3:31 AM 42.1 °F 37.1 °F 39.9 °F 92% 29.70 in 7.0 mi North 8.1 mph - 0.00 in   Overcast
3:53 AM 41.0 °F 35.8 °F 39.9 °F 96% 29.70 in 9.0 mi North 8.1 mph - 0.00 in   Overcast
4:09 AM 41.0 °F 35.8 °F 39.0 °F 93% 29.68 in 10.0 mi NNE 8.1 mph - N/A   Overcast
4:53 AM 41.0 °F 35.8 °F 39.0 °F 93% 29.70 in 8.0 mi North 8.1 mph - N/A   Overcast
5:53 AM 39.9 °F 35.1 °F 37.9 °F 93% 29.70 in 4.0 mi North 6.9 mph - N/A   Overcast
6:29 AM 39.9 °F 34.5 °F 37.9 °F 93% 29.71 in 7.0 mi NNW 8.1 mph - N/A   Overcast
6:42 AM 39.0 °F 34.0 °F 37.9 °F 96% 29.72 in 6.0 mi NNW 6.9 mph - N/A   Overcast
6:53 AM 39.0 °F 34.8 °F 37.9 °F 96% 29.73 in 9.0 mi NW 5.8 mph - N/A   Overcast
7:18 AM 39.0 °F 33.4 °F 37.9 °F 96% 29.74 in 10.0 mi NNW 8.1 mph - N/A   Overcast
7:45 AM 39.9 °F 34.5 °F 37.9 °F 93% 29.74 in 10.0 mi NNW 8.1 mph - N/A   Overcast
7:53 AM 39.9 °F 34.5 °F 39.0 °F 97% 29.75 in 10.0 mi NNW 8.1 mph - N/A   Mostly Cloudy
8:12 AM 42.1 °F 38.4 °F 39.0 °F 89% 29.74 in 10.0 mi NW 5.8 mph - N/A   Mostly Cloudy
8:53 AM 43.0 °F 40.3 °F 39.9 °F 89% 29.76 in 10.0 mi WNW 4.6 mph - N/A   Overcast
9:45 AM 45.0 °F 40.6 °F 39.9 °F 82% 29.75 in 10.0 mi WSW 8.1 mph - N/A   Scattered Clouds
9:53 AM 46.0 °F 43.1 °F 41.0 °F 83% 29.75 in 10.0 mi WSW 5.8 mph - N/A   Scattered Clouds
10:53 AM 45.0 °F 38.9 °F 39.0 °F 80% 29.77 in 10.0 mi West 12.7 mph 18.4 mph N/A   Partly Cloudy
11:13 AM 43.0 °F 36.0 °F 39.0 °F 86% 29.76 in 10.0 mi WSW 13.8 mph 19.6 mph N/A   Mostly Cloudy
11:23 AM 42.1 °F 35.7 °F 37.9 °F 85% 29.77 in 6.0 mi SW 11.5 mph - N/A   Overcast
11:53 AM 44.1 °F 37.4 °F 39.0 °F 82% 29.76 in 10.0 mi SW 13.8 mph - N/A   Mostly Cloudy
12:05 PM 44.1 °F 37.1 °F 39.0 °F 82% 29.76 in 10.0 mi WSW 15.0 mph 23.0 mph N/A   Partly Cloudy
12:36 PM 46.0 °F 40.2 °F 39.0 °F 76% 29.77 in 10.0 mi WSW 12.7 mph 24.2 mph N/A   Mostly Cloudy
12:53 PM 46.0 °F 41.0 °F 39.0 °F 76% 29.77 in 10.0 mi WSW 10.4 mph 25.3 mph N/A   Overcast
1:53 PM 48.9 °F - 37.9 °F 66% 29.77 in 10.0 mi Variable 4.6 mph - N/A   Overcast
2:46 PM 50.0 °F - 37.9 °F 63% 29.76 in 10.0 mi Variable 4.6 mph - N/A   Overcast
2:53 PM 51.1 °F - 37.9 °F 61% 29.75 in 10.0 mi Variable 5.8 mph - N/A   Overcast
3:53 PM 51.1 °F - 36.0 °F 56% 29.77 in 10.0 mi SW 9.2 mph - N/A   Overcast
4:53 PM 52.0 °F - 34.0 °F 50% 29.78 in 10.0 mi WSW 9.2 mph - N/A   Partly Cloudy
5:53 PM 52.0 °F - 32.0 °F 47% 29.80 in 10.0 mi WSW 10.4 mph - N/A   Partly Cloudy
6:53 PM 51.1 °F - 26.1 °F 38% 29.83 in 10.0 mi WNW 6.9 mph 18.4 mph N/A   Clear
7:53 PM 48.9 °F - 26.1 °F 41% 29.88 in 10.0 mi NW 9.2 mph 23.0 mph N/A   Clear
8:53 PM 44.1 °F 36.8 °F 23.0 °F 43% 29.94 in 10.0 mi WNW 16.1 mph 26.5 mph N/A   Clear
9:53 PM 42.1 °F 40.2 °F 21.9 °F 45% 29.96 in 10.0 mi Variable 3.5 mph - N/A   Clear
10:53 PM 41.0 °F 36.4 °F 21.9 °F 47% 29.98 in 10.0 mi WNW 6.9 mph - N/A   Clear
11:53 PM 39.9 °F 33.9 °F 21.0 °F 47% 30.00 in 10.0 mi West 9.2 mph 18.4 mph N/A   Clear